Flag for United Arab Emirates Weather past 2 weeks in Sharjah, Sharjah, United Arab Emirates

Now
104 °F

Passing clouds.


Feels Like: 108 °F
Forecast: 91 / 103 °F
Wind: 12 mph from Northwest

Location: Sharjah International Airport

Current Time: Jul 30, 2014 at 5:10:51 PM

Latest Report: Jul 30, 2014 at 4:00 PM


Visibility: N/A

Pressure: 29.45 "Hg

Humidity: 28%

Dew point: 64 °F

Location of SharjahLocation

Historic Weather in Sharjah — Graph

°F

Sharjah temperature yesterday

Maximum temperature yesterday: 106 °F (at 1:00 PM)
Minimum temperature yesterday: 90 °F (at 4:00 AM)
Average temperature yesterday: 96 °F

Past Weeks' High & Low Weather Summary

 TemperatureHumidityPressure
High115 °F (Jul 26, 2:00 PM)84% (Jul 16, 6:00 AM)29.56 "Hg (Jul 16, 6:00 AM)
Low84 °F (Jul 22, 6:00 AM)18% (Jul 19, 11:00 AM)29.33 "Hg (Jul 18, 5:00 PM)
Average97 °F54%29.44 "Hg
* Reported Jul 15 4:00 PM — Jul 30 4:00 PM, Sharjah, Weather by CustomWeather, © 2014

Note: Actual official high and low records may vary slightly from our data, if they occured in-between our weather recording intervals... More about our weather records

Advertising

Sharjah weather history for previous 24 hours

 ConditionsComfort  
Time TempWeatherWind HumidityBarometerVisibility
4:00 PM
Jul 30
104 °FPassing clouds.12 mph28%29.45 "HgN/A
3:00 PM104 °FPassing clouds.12 mph31%29.45 "HgN/A
2:00 PM102 °FPassing clouds.13 mph35%29.45 "HgN/A
1:00 PM104 °FClear.12 mph28%29.47 "Hg5 mi
12:00 PM102 °FClear.7 mph37%29.47 "Hg5 mi
11:00 AM100 °FClear.7 mph40%29.47 "Hg5 mi
10:00 AM97 °FPassing clouds.7 mph47%29.50 "HgN/A
9:00 AM95 °FPassing clouds.8 mph50%29.50 "HgN/A
8:00 AM91 °FPassing clouds.7 mph56%29.47 "HgN/A
7:00 AM88 °FPassing clouds.5 mph62%29.47 "HgN/A
6:00 AM86 °FSunny.7 mph66%29.45 "Hg10 mi
5:00 AM86 °FClear.7 mph66%29.45 "Hg10 mi
4:00 AM88 °FClear.6 mph66%29.45 "Hg10 mi
3:00 AM88 °FPassing clouds.7 mph66%29.42 "HgN/A
2:00 AM90 °FClear.7 mph63%29.42 "Hg10 mi
1:00 AM91 °FPassing clouds.6 mph67%29.45 "HgN/A
12:00 AM93 °FPassing clouds.7 mph63%29.45 "HgN/A
11:00 PM
Jul 29
93 °FPassing clouds.9 mph63%29.45 "HgN/A
10:00 PM93 °FClear.9 mph67%29.45 "Hg10 mi
9:00 PM95 °FPassing clouds.9 mph63%29.45 "HgN/A
8:00 PM95 °FPassing clouds.13 mph63%29.42 "HgN/A
7:00 PM95 °FPassing clouds.14 mph63%29.42 "HgN/A
6:00 PM97 °FSunny.17 mph60%29.39 "Hg10 mi
5:00 PM99 °FClear.16 mph60%29.36 "Hg5 mi
Weather by CustomWeather, © 2014

See weather overviewHow to use our weather pages